{"data":{"norad_id":58655,"intl_designator":"2023-207B","name":"BEIDOU-3 M26 (C48)","alt_names":[],"object_type":"PAYLOAD","status":"ACTIVE","operator":null,"country":"PRC","launch_date":"2023-12-26","launch_site_code":"XICLF","launch_vehicle":null,"mission":null,"orbit_class":"UNKNOWN","rcs_meters":null,"size_class":null,"mass_kg":null,"dimensions":null,"purposes":["nav"],"wikipedia_slug":null,"has_3d_model":false,"image_url":null,"decayed_at":null,"tle_current":{"epoch":"2026-09-19T14:25:57.096192Z","epoch_age_seconds":92084,"freshness":"FRESH","line1":"1 58655U 23207B   26262.60135528 -.00000015  00000+0  00000+0 0  9996","line2":"2 58655  55.8438  59.1102 0001140 244.6862 115.3218  1.86229692 18588","mean_motion":1.86229692,"eccentricity":0.000114,"inclination_deg":55.8438,"raan_deg":59.1102,"arg_perigee_deg":244.6862,"mean_anomaly_deg":115.3218,"bstar":0,"rev_number":1858,"period_min":773.23867345493,"perigee_km":21525.000910991,"apogee_km":21531.363551775,"semimajor_km":27906.319231383,"source":"CELESTRAK","updated_at":"2026-09-20T09:00:46.715581Z"}}}